Weather History for Lexington, NE

Change the Weather History Date:

Sunday, January 26, 2014

  Actual Average Record
Temperature  
Mean Temperature 34 °F -  
Max Temperature 57 °F 36 °F 71 °F (2002)
Min Temperature 12 °F 15 °F 0 °F (1997)
Degree Days  
Heating Degree Days 30    
Moisture  
Dew Point 17 °F    
Average Humidity 50    
Maximum Humidity 79    
Minimum Humidity 30    
Precipitation  
Precipitation 0.00 in - - ()
Sea Level Pressure  
Sea Level Pressure 29.86 in    
Wind  
Wind Speed 15 mph (NW)    
Max Wind Speed 38 mph    
Max Gust Speed 50 mph    
Visibility 10 miles    
Events Rain , Snow    
Averages and records for this station are not official NWS values.
T = Trace of Precipitation, MM = Missing Value Source: NWS Daily Summary

Daily Weather History Graph

Daily Weather History Graph

Search for Another Location

Airport:

Trip Planner

Search our weather history database for the weather conditions in past years. The results will help you decide how hot, cold, wet, or windy it might be!

Date:

Astronomy

Jan. 26, 2014 Rise Set
Actual Time 7:54 AM CST 5:49 PM CST
Civil Twilight 7:25 AM CST 6:18 PM CST
Nautical Twilight 6:51 AM CST 6:51 PM CST
Astronomical Twilight 6:19 AM CST 7:24 PM CST
Moon 3:33 AM CST (1/26) 1:40 PM CST (1/26)
Length of Visible Light 10h 53m
Length of Day
9h 54m
Waning Crescent, 23% of the Moon is Illuminated
Jan 26
Waning Crescent
Jan 30
New
Feb 6
First Quarter
Feb 14
Full
Feb 22
Last Quarter

Hourly Weather History & Observations

Time (CST) Temp. Windchill Dew Point Humidity Pressure Visibility Wind Dir Wind Speed Gust Speed Precip Events Conditions
12:15 AM 44.2 °F 38.4 °F 20.8 °F 39% 29.71 in 10.0 mi West 11.5 mph - N/A   Clear
12:35 AM 44.1 °F 37.7 °F 20.8 °F 40% 29.71 in 10.0 mi West 12.7 mph - N/A   Clear
12:55 AM 43.7 °F 37.7 °F 20.7 °F 40% 29.71 in 10.0 mi West 11.5 mph - N/A   Clear
1:15 AM 41.2 °F 35.5 °F 20.1 °F 43% 29.71 in 10.0 mi West 9.2 mph - N/A   Clear
1:35 AM 38.7 °F 33.6 °F 19.4 °F 46% 29.73 in 10.0 mi NNW 6.9 mph - N/A   Clear
1:55 AM 37.4 °F 30.8 °F 19.8 °F 49% 29.73 in 10.0 mi NW 9.2 mph - N/A   Clear
2:15 AM 39.2 °F 32.5 °F 20.3 °F 47% 29.73 in 10.0 mi WNW 10.4 mph - N/A   Clear
2:35 AM 41.5 °F 34.2 °F 20.5 °F 43% 29.73 in 10.0 mi WNW 13.8 mph - N/A   Clear
2:55 AM 41.5 °F 34.6 °F 20.7 °F 43% 29.73 in 10.0 mi WNW 12.7 mph - N/A   Clear
3:15 AM 39.7 °F 32.3 °F 20.7 °F 46% 29.73 in 10.0 mi NW 12.7 mph - N/A   Clear
3:35 AM 40.1 °F 32.7 °F 20.8 °F 46% 29.74 in 10.0 mi NW 12.7 mph - N/A   Clear
3:55 AM 39.2 °F 31.6 °F 21.2 °F 49% 29.74 in 10.0 mi NW 12.7 mph - N/A   Clear
4:15 AM 41.0 °F 33.1 °F 22.1 °F 47% 29.74 in 10.0 mi NW 15.0 mph - N/A   Clear
4:35 AM 40.5 °F 32.8 °F 22.1 °F 48% 29.73 in 10.0 mi NW 13.8 mph 17.3 mph N/A   Clear
4:55 AM 39.4 °F 31.8 °F 23.5 °F 53% 29.73 in 10.0 mi WNW 12.7 mph - N/A   Clear
5:15 AM 39.4 °F 31.4 °F 24.6 °F 56% 29.74 in 10.0 mi NW 13.8 mph - N/A   Clear
5:35 AM 37.9 °F 30.0 °F 23.9 °F 57% 29.74 in 10.0 mi NW 12.7 mph - N/A   Clear
5:55 AM 34.5 °F 26.2 °F 23.0 °F 63% 29.74 in 10.0 mi NW 11.5 mph - N/A   Clear
6:15 AM 35.4 °F 27.8 °F 23.7 °F 62% 29.74 in 10.0 mi NW 10.4 mph - N/A   Clear
6:35 AM 33.6 °F 25.6 °F 23.5 °F 67% 29.75 in 10.0 mi NNW 10.4 mph - N/A   Clear
6:55 AM 32.5 °F 23.2 °F 23.7 °F 70% 29.75 in 10.0 mi NNW 12.7 mph - N/A   Clear
7:15 AM 31.8 °F 25.4 °F 23.2 °F 70% 29.75 in 10.0 mi NNW 6.9 mph - N/A   Clear
7:35 AM 31.3 °F 23.9 °F 23.9 °F 74% 29.76 in 10.0 mi NW 8.1 mph - N/A   Clear
7:55 AM 30.0 °F 22.4 °F 22.6 °F 74% 29.76 in 10.0 mi West 8.1 mph - N/A   Clear
8:15 AM 28.0 °F 18.6 °F 21.6 °F 77% 29.75 in 10.0 mi WNW 10.4 mph - N/A   Clear
8:35 AM 30.2 °F 25.4 °F 23.0 °F 75% 29.75 in 10.0 mi West 4.6 mph - N/A   Clear
8:55 AM 32.2 °F 28.9 °F 23.9 °F 72% 29.75 in 10.0 mi WSW 3.5 mph - N/A   Clear
9:15 AM 35.6 °F 29.2 °F 24.8 °F 65% 29.75 in 10.0 mi West 8.1 mph - N/A   Clear
9:35 AM 39.7 °F 33.7 °F 26.8 °F 60% 29.74 in 10.0 mi West 9.2 mph - N/A   Clear
9:55 AM 43.3 °F 38.6 °F 28.0 °F 55% 29.73 in 10.0 mi WSW 8.1 mph - N/A   Clear
10:15 AM 46.4 °F 40.7 °F 28.6 °F 50% 29.73 in 10.0 mi West 12.7 mph - N/A   Clear
10:35 AM 47.1 °F - 29.5 °F 50% 29.74 in 10.0 mi West 13.8 mph - N/A   Clear
10:55 AM 47.7 °F - 28.6 °F 48% 29.73 in 10.0 mi West 15.0 mph 18.4 mph N/A   Clear
11:15 AM 49.1 °F - 28.4 °F 45% 29.73 in 10.0 mi WNW 13.8 mph - N/A   Clear
11:35 AM 51.8 °F - 27.7 °F 39% 29.73 in 10.0 mi WNW 20.7 mph - N/A   Clear
11:55 AM 54.0 °F - 27.0 °F 35% 29.72 in 10.0 mi NW 19.6 mph - N/A   Clear
12:15 PM 54.7 °F - 26.4 °F 34% 29.71 in 10.0 mi NW 20.7 mph 28.8 mph N/A   Clear
12:40 PM 57.0 °F - 26.2 °F 31% 29.69 in 10.0 mi WNW 26.5 mph 29.9 mph N/A   Clear
12:55 PM 56.7 °F - 26.1 °F 31% 29.69 in 10.0 mi NW 25.3 mph 32.2 mph N/A   Scattered Clouds
1:15 PM 55.4 °F - 26.2 °F 33% 29.69 in 10.0 mi NW 18.4 mph - N/A   Scattered Clouds
1:35 PM 55.8 °F - 24.8 °F 30% 29.69 in 10.0 mi NNW 25.3 mph 36.8 mph N/A   Mostly Cloudy
1:55 PM 53.8 °F - 23.2 °F 30% 29.69 in 10.0 mi NNW 24.2 mph 34.5 mph N/A   Overcast
2:15 PM 53.1 °F - 24.8 °F 33% 29.69 in 10.0 mi NNW 17.3 mph 26.5 mph N/A   Overcast
2:35 PM 52.7 °F - 25.2 °F 34% 29.70 in 10.0 mi NNW 20.7 mph 29.9 mph N/A   Overcast
2:55 PM 51.1 °F - 29.1 °F 43% 29.72 in 10.0 mi NNW 25.3 mph 33.4 mph N/A Rain Light Rain
3:15 PM 45.7 °F 35.1 °F 30.6 °F 56% 29.77 in 10.0 mi North 38.0 mph 49.5 mph N/A Rain Light Rain
3:40 PM 34.3 °F 22.0 °F 27.7 °F 77% 29.84 in 2.0 mi North 24.2 mph 43.7 mph N/A Snow Light Snow
3:55 PM 32.5 °F 18.1 °F 24.1 °F 71% 29.87 in 10.0 mi North 31.1 mph 41.4 mph N/A   Overcast
4:15 PM 30.9 °F 17.2 °F 25.0 °F 79% 29.88 in 5.0 mi North 25.3 mph 31.1 mph N/A   Haze
4:35 PM 31.1 °F 18.0 °F 23.4 °F 73% 29.92 in 10.0 mi North 23.0 mph 32.2 mph N/A   Overcast
4:55 PM 30.7 °F 15.9 °F 19.6 °F 63% 29.94 in 10.0 mi North 29.9 mph 39.1 mph N/A   Overcast
5:15 PM 30.6 °F 15.7 °F 16.9 °F 57% 29.96 in 10.0 mi North 29.9 mph 35.7 mph N/A   Overcast
5:35 PM 28.9 °F 14.3 °F 13.6 °F 53% 29.98 in 10.0 mi North 26.5 mph 36.8 mph N/A   Overcast
5:55 PM 27.7 °F 12.0 °F 9.5 °F 46% 30.00 in 10.0 mi North 28.8 mph 36.8 mph N/A   Overcast
6:15 PM 25.7 °F 11.5 °F 7.7 °F 47% 30.03 in 10.0 mi North 20.7 mph 36.8 mph N/A   Scattered Clouds
6:35 PM 25.0 °F 6.6 °F 10.0 °F 53% 30.04 in 10.0 mi North 36.8 mph 41.4 mph N/A   Mostly Cloudy
6:50 PM 23.9 °F 5.9 °F 7.0 °F 49% 30.06 in 10.0 mi North 33.4 mph 46.0 mph N/A   Overcast
7:15 PM 21.9 °F 4.5 °F 4.3 °F 47% 30.11 in 10.0 mi North 27.6 mph 35.7 mph N/A   Overcast
7:35 PM 20.3 °F 2.0 °F 2.3 °F 46% 30.11 in 10.0 mi North 28.8 mph 35.7 mph N/A   Overcast
7:55 PM 19.8 °F 2.6 °F -0.2 °F 42% 30.14 in 10.0 mi North 24.2 mph 35.7 mph N/A   Mostly Cloudy
8:15 PM 19.2 °F 1.9 °F -0.0 °F 43% 30.15 in 10.0 mi North 24.2 mph 36.8 mph N/A   Mostly Cloudy
8:35 PM 18.1 °F 1.2 °F -0.6 °F 44% 30.16 in 10.0 mi North 21.9 mph 31.1 mph N/A   Scattered Clouds
8:55 PM 17.4 °F -0.5 °F -1.1 °F 44% 30.17 in 10.0 mi North 24.2 mph 31.1 mph N/A   Clear
9:15 PM 16.7 °F -0.3 °F -3.3 °F 41% 30.17 in 10.0 mi North 20.7 mph 31.1 mph N/A   Scattered Clouds
9:35 PM 15.8 °F 0.9 °F -3.6 °F 42% 30.20 in 10.0 mi North 15.0 mph - N/A   Mostly Cloudy
9:55 PM 14.9 °F -0.8 °F -4.0 °F 43% 30.21 in 10.0 mi North 16.1 mph 21.9 mph N/A   Scattered Clouds
10:15 PM 14.9 °F -0.3 °F -4.0 °F 43% 30.23 in 10.0 mi North 15.0 mph 25.3 mph N/A   Mostly Cloudy
10:35 PM 14.2 °F -2.3 °F -3.8 °F 45% 30.24 in 10.0 mi North 17.3 mph 20.7 mph N/A   Mostly Cloudy
10:55 PM 13.8 °F -2.7 °F -4.9 °F 43% 30.26 in 10.0 mi North 17.3 mph 25.3 mph N/A   Mostly Cloudy
11:15 PM 12.4 °F -0.8 °F -4.9 °F 46% 30.27 in 10.0 mi North 10.4 mph - N/A   Scattered Clouds
11:35 PM 13.1 °F -3.1 °F -5.6 °F 43% 30.28 in 10.0 mi North 16.1 mph 25.3 mph N/A   Mostly Cloudy
11:55 PM 12.2 °F -6.3 °F -6.5 °F 43% 30.29 in 10.0 mi North 20.7 mph 28.8 mph N/A   Mostly Cloudy